Ely, NV

5:29 PM PST on December 13, 2017 (GMT -0800)
Ely

Weather History for KELY - December, 2012

Change the Weather History Date:

Friday, December 14, 2012

  Actual Average Record
Temperature  
Mean Temperature 30 °F 25 °F  
Max Temperature 35 °F 39 °F 66 °F (1910)
Min Temperature 25 °F 11 °F -15 °F (1972)
Degree Days  
Heating Degree Days 35 40  
Month to date heating degree days 414 546  
Since 1 July heating degree days 1836 2414  
Cooling Degree Days 0 0  
Month to date cooling degree days 0 0  
Year to date cooling degree days 314 218  
Moisture  
Dew Point 28 °F    
Average Humidity 88    
Maximum Humidity 100    
Minimum Humidity 75    
Precipitation  
Precipitation 0.26 in 0.02 in 0.26 in (2012)
Month to date precipitation 0.43 0.24  
Year to date precipitation 10.95 9.41  
Snow  
Snow 2.80 in 0.30 in 2.80 in (2012)
Month to date snowfall 2.8 3.1  
Since 1 July snowfall 12.8 12.6  
Snow Depth T in    
Sea Level Pressure  
Sea Level Pressure 29.69 in    
Wind  
Wind Speed 4 mph (NNW)    
Max Wind Speed 16 mph    
Max Gust Speed 22 mph    
Visibility 6 miles    
Events Snow    
T = Trace of Precipitation, MM = Missing Value Source: NWS Daily Summary

Daily Weather History Graph

Daily Weather History Graph

Search for Another Location

Airport or City:

Trip Planner

Search our weather history database for the weather conditions in past years. The results will help you decide how hot, cold, wet, or windy it might be!

Date:

Astronomy

Dec. 14, 2012 Rise Set
Actual Time 6:51 AM PST 4:17 PM PST
Civil Twilight 6:21 AM PST 4:47 PM PST
Nautical Twilight 5:47 AM PST 5:20 PM PST
Astronomical Twilight 5:15 AM PST 5:53 PM PST
Moon 8:00 AM PST 6:14 PM PST
Length of Visible Light 10h 25m
Length of Day
9h 25m
Waxing Crescent, 3% of the Moon is Illuminated
Dec 14
Waxing Crescent
Dec 19
First Quarter
Dec 28
Full
Jan 4
Last Quarter
Jan 11
New

Hourly Weather History & Observations

Time (PST) Temp. Windchill Dew Point Humidity Pressure Visibility Wind Dir Wind Speed Gust Speed Precip Events Conditions
12:53 AM 30.0 °F 26.5 °F 27.0 °F 88% 29.67 in 10.0 mi ESE 3.5 mph - N/A   Overcast
1:53 AM 30.0 °F - 27.0 °F 88% 29.66 in 6.0 mi Calm Calm - 0.00 in Snow Light Snow
2:49 AM 30.2 °F - 28.4 °F 93% 29.65 in 10.0 mi Calm Calm - 0.00 in   Overcast
2:53 AM 30.0 °F - 28.0 °F 92% 29.63 in 10.0 mi Calm Calm - 0.00 in   Overcast
3:04 AM 30.2 °F - 28.4 °F 93% 29.65 in 10.0 mi Calm Calm - 0.00 in   Overcast
3:24 AM 28.4 °F 24.6 °F 28.4 °F 100% 29.64 in 10.0 mi NW 3.5 mph - 0.00 in   Overcast
3:32 AM 28.4 °F 23.3 °F 28.4 °F 100% 29.64 in 10.0 mi WNW 4.6 mph - 0.00 in   Overcast
3:53 AM 30.0 °F - 28.9 °F 96% 29.61 in 9.0 mi Calm Calm - 0.00 in   Overcast
4:34 AM 30.2 °F 26.7 °F 28.4 °F 93% 29.62 in 10.0 mi North 3.5 mph - 0.01 in   Overcast
4:53 AM 30.0 °F 26.5 °F 28.9 °F 96% 29.60 in 10.0 mi NNW 3.5 mph - 0.01 in   Overcast
5:53 AM 30.0 °F 25.2 °F 28.9 °F 96% 29.62 in 10.0 mi NE 4.6 mph - N/A   Overcast
6:37 AM 30.2 °F 25.4 °F 28.4 °F 93% 29.62 in 4.0 mi North 4.6 mph - 0.00 in Snow Light Snow
6:53 AM 28.9 °F 23.9 °F 28.9 °F 100% 29.62 in 4.0 mi North 4.6 mph - 0.00 in Snow Light Snow
7:39 AM 28.4 °F 23.3 °F 28.4 °F 100% 29.62 in 2.5 mi North 4.6 mph - 0.01 in Snow Light Snow
7:53 AM 28.9 °F - 28.9 °F 100% 29.61 in 2.5 mi North - - 0.01 in Snow Light Snow
8:02 AM 30.2 °F 24.3 °F 28.4 °F 93% 29.62 in 3.0 mi North 5.8 mph - 0.00 in Snow Light Snow
8:18 AM 30.2 °F 25.4 °F 28.4 °F 93% 29.63 in 1.8 mi North 4.6 mph - 0.01 in Snow Light Snow
8:21 AM 30.2 °F 24.3 °F 28.4 °F 93% 29.63 in 1.2 mi North 5.8 mph - 0.01 in Snow Light Snow
8:40 AM 30.2 °F 23.4 °F 28.4 °F 93% 29.63 in 1.8 mi North 6.9 mph - 0.02 in Snow Light Snow
8:48 AM 30.2 °F 23.4 °F 28.4 °F 93% 29.63 in 2.5 mi North 6.9 mph - 0.02 in Snow Light Snow
8:53 AM 30.0 °F 24.1 °F 28.9 °F 96% 29.63 in 4.0 mi NNW 5.8 mph - 0.02 in Snow Light Snow
9:53 AM 32.0 °F 27.5 °F 30.0 °F 92% 29.62 in 9.0 mi NNW 4.6 mph - 0.00 in   Overcast
10:08 AM 32.0 °F 27.5 °F 30.2 °F 93% 29.63 in 10.0 mi North 4.6 mph - N/A   Overcast
10:27 AM 32.0 °F 27.5 °F 30.2 °F 93% 29.63 in 9.0 mi NNW 4.6 mph - 0.00 in Snow Light Snow
10:53 AM 33.1 °F 28.7 °F 30.0 °F 89% 29.60 in 9.0 mi NNW 4.6 mph - 0.00 in   Overcast
11:42 AM 33.8 °F 29.6 °F 30.2 °F 87% 29.61 in 9.0 mi North 4.6 mph - 0.00 in Snow Light Snow
11:53 AM 34.0 °F 29.8 °F 30.9 °F 89% 29.59 in 10.0 mi NNE 4.6 mph - 0.00 in   Overcast
12:19 PM 33.8 °F 29.6 °F 30.2 °F 87% 29.61 in 10.0 mi North 4.6 mph - N/A   Overcast
1:07 PM 35.6 °F - 30.2 °F 81% 29.61 in 9.0 mi Calm Calm - 0.00 in Snow Light Snow
1:53 PM 35.1 °F - 28.9 °F 78% 29.59 in 6.0 mi Calm Calm - 0.00 in Snow Light Snow
2:17 PM 33.8 °F - 30.2 °F 87% 29.63 in 2.0 mi Calm Calm - 0.01 in Snow Light Snow
2:30 PM 33.8 °F 30.8 °F 30.2 °F 87% 29.63 in 3.0 mi West 3.5 mph - 0.01 in Snow Light Snow
2:39 PM 33.8 °F 27.7 °F 26.6 °F 75% 29.64 in 9.0 mi West 6.9 mph - 0.01 in Snow Light Snow
2:53 PM 34.0 °F 28.8 °F 27.0 °F 75% 29.63 in 5.0 mi West 5.8 mph - 0.01 in Snow Light Snow
3:53 PM 30.9 °F 25.2 °F 28.0 °F 89% 29.66 in 2.5 mi Variable 5.8 mph - 0.01 in Snow Light Snow
4:04 PM 30.2 °F - 28.4 °F 93% 29.67 in 8.0 mi North - - 0.00 in Snow Light Snow
4:45 PM 30.2 °F - 28.4 °F 93% 29.69 in 8.0 mi Calm Calm - 0.00 in Snow Light Snow
4:53 PM 30.9 °F - 27.0 °F 85% 29.69 in 8.0 mi Calm Calm - 0.00 in Snow Light Snow
5:15 PM 30.2 °F 24.3 °F 28.4 °F 93% 29.70 in 2.5 mi East 5.8 mph - 0.00 in Snow Light Snow
5:20 PM 30.2 °F 26.7 °F 28.4 °F 93% 29.71 in 1.2 mi ESE 3.5 mph - N/A Snow Light Snow
5:33 PM 30.2 °F 26.7 °F 28.4 °F 93% 29.71 in 1.0 mi SE 3.5 mph - 0.02 in Snow Light Snow
5:48 PM 30.2 °F 26.7 °F 28.4 °F 93% 29.71 in 1.0 mi East 3.5 mph - 0.03 in Snow Light Snow
5:53 PM 30.0 °F 26.5 °F 28.9 °F 96% 29.73 in 1.0 mi East 3.5 mph - 0.04 in Snow Light Snow
6:00 PM 30.2 °F - 28.4 °F 93% 29.72 in 1.5 mi Calm Calm - 0.00 in Snow Light Snow
6:25 PM 28.4 °F - 28.4 °F 100% 29.73 in 0.8 mi Calm Calm - 0.03 in Snow Light Snow
6:41 PM 28.4 °F - 28.4 °F 100% 29.73 in 1.2 mi Calm Calm - 0.04 in Snow Light Snow
6:46 PM 28.4 °F - 28.4 °F 100% 29.73 in 2.0 mi Calm Calm - 0.04 in Snow Light Snow
6:53 PM 28.9 °F - 28.0 °F 96% 29.75 in 5.0 mi Calm Calm - 0.04 in Snow Light Snow
7:00 PM 28.4 °F - 28.4 °F 100% 29.74 in 8.0 mi Calm Calm - 0.00 in Snow Light Snow
7:21 PM 28.4 °F - 26.6 °F 93% 29.74 in 9.0 mi Calm Calm - 0.00 in   Overcast
7:53 PM 28.0 °F 24.2 °F 27.0 °F 96% 29.76 in 4.0 mi West 3.5 mph - 0.00 in Snow Light Snow
7:59 PM 28.4 °F 24.6 °F 26.6 °F 93% 29.75 in 1.8 mi WNW 3.5 mph - 0.01 in Snow Light Snow
8:16 PM 28.4 °F 21.2 °F 26.6 °F 93% 29.76 in 3.0 mi WSW 6.9 mph - 0.01 in Snow Light Snow
8:18 PM 28.4 °F 22.2 °F 26.6 °F 93% 29.76 in 2.5 mi WSW 5.8 mph - 0.01 in Snow Light Snow
8:23 PM 28.4 °F - 26.6 °F 93% 29.76 in 1.2 mi Calm Calm - 0.02 in Snow Light Snow
8:30 PM 28.4 °F 23.3 °F 26.6 °F 93% 29.76 in 0.8 mi SSE 4.6 mph - 0.03 in Snow Light Snow
8:40 PM 28.4 °F 24.6 °F 26.6 °F 93% 29.76 in 1.0 mi ESE 3.5 mph - 0.04 in Snow Light Snow
8:46 PM 28.4 °F 22.2 °F 26.6 °F 93% 29.76 in 2.0 mi East 5.8 mph - 0.04 in Snow Light Snow
8:51 PM 28.4 °F 22.2 °F 26.6 °F 93% 29.76 in 6.0 mi East 5.8 mph - 0.04 in Snow Light Snow
8:53 PM 28.0 °F 22.8 °F 27.0 °F 96% 29.77 in 7.0 mi East 4.6 mph - 0.04 in Snow Light Snow
9:23 PM 28.4 °F 23.3 °F 26.6 °F 93% 29.76 in 8.0 mi West 4.6 mph - 0.00 in Snow Light Snow
9:41 PM 26.6 °F - 24.8 °F 93% 29.76 in 6.0 mi Calm Calm - 0.00 in Snow Light Snow
9:53 PM 27.0 °F 21.6 °F 25.0 °F 92% 29.78 in 9.0 mi West 4.6 mph - 0.00 in   Overcast
10:06 PM 26.6 °F 21.2 °F 24.8 °F 93% 29.77 in 4.0 mi WSW 4.6 mph - 0.00 in Snow Light Snow
10:53 PM 27.0 °F 18.0 °F 25.0 °F 92% 29.79 in 5.0 mi West 9.2 mph - 0.01 in Snow Light Snow
10:57 PM 26.6 °F 18.2 °F 24.8 °F 93% 29.78 in 2.5 mi WNW 8.1 mph - 0.00 in Snow Light Snow
11:07 PM 26.6 °F 18.2 °F 24.8 °F 93% 29.78 in 1.5 mi WNW 8.1 mph - 0.01 in Snow Light Snow
11:13 PM 26.6 °F 16.2 °F 23.0 °F 86% 29.78 in 2.5 mi West 11.5 mph - 0.01 in Snow Light Snow
11:20 PM 24.8 °F 14.0 °F 21.2 °F 86% 29.79 in 5.0 mi WNW 11.5 mph - 0.01 in Snow Light Snow
11:48 PM 24.8 °F 14.0 °F 21.2 °F 86% 29.78 in 8.0 mi WNW 11.5 mph - 0.01 in Snow Light Snow
11:53 PM 25.0 °F 14.8 °F 21.9 °F 88% 29.79 in 8.0 mi WNW 10.4 mph - 0.01 in Snow Light Snow